[[{"header":{"parameterUnit":"m.s-1","parameterCategory":1,"la1":30.2991,"la2":30.254,"lo1":-89.0895,"lo2":-89.0444,"dy":0.0017,"dx":0.0017,"nx":28,"ny":28,"refTime":"2024-08-19T21:00:00:Z","depth":0,"parameterNumber":2,"parameterNumberName":"U-component_of_WINDS"},"data":[0,0,0,0,0,0,0,0,0,0,0,0,0,0,0,0,0,0,0,0,0,0,0,0,0,0,0,0,0,0,0,0,0,0,0,0,0,0,0,0,0,0,0,0,0,0,0,0,0,0,0,0,0,0,0,0,0,0,-2.0626,-2.0627,0,-2.0699,-2.07,-2.07,-2.0635,-2.0632,-2.0629,-2.0627,-2.0699,-2.0703,-2.0707,0,0,0,0,0,0,0,0,0,0,0,0,0,-2.0427,-2.0431,-2.0626,-2.0627,-2.0628,-2.0699,-2.07,-2.0701,-2.0635,-2.0632,-2.0629,-2.0626,-2.0697,-2.0702,-2.0708,0,0,0,0,0,0,0,0,0,0,0,0,0,-2.0508,-2.0432,-2.0626,-2.0604,-2.0603,-2.0698,-2.07,-2.0701,-2.0636,-2.0632,-2.0628,-2.0624,-2.0696,-2.0702,-2.0708,-2.0829,0,0,-2.0729,-2.0731,0,0,0,0,0,0,0,0,-2.0503,-2.0515,-2.0606,-2.0606,-2.0604,-2.0654,-2.0656,-2.0744,-2.0637,-2.0623,-2.0627,-2.0622,-2.0687,-2.0694,-2.0716,-2.0832,-2.0835,-2.0729,-2.0733,-2.0736,-2.0738,0,0,0,0,0,0,0,-2.0498,-2.0512,-2.0655,-2.0608,-2.0607,-2.0589,-2.0596,-2.0672,-2.0676,-2.0624,-2.062,-2.0629,-2.0685,-2.071,-2.0717,-2.0836,-2.0729,-2.0735,-2.0739,-2.0741,-2.1052,-2.1056,0,0,0,0,0,0,-2.0495,-2.0508,-2.0652,-2.0657,-2.0543,-2.0596,-2.0604,-2.0642,-2.0675,-2.0677,-2.0632,-2.0626,-2.0701,-2.071,-2.072,-2.0861,-2.0736,-2.0742,-2.0746,-2.1048,-2.1053,-2.1058,0,0,0,0,0,0,-2.0491,-2.0509,-2.0649,-2.0581,-2.0598,-2.0604,-2.0647,-2.0645,-2.067,-2.0682,-2.0682,-2.0657,-2.0698,-2.071,-2.0802,-2.0863,-2.0745,-2.0751,-2.1043,-2.1049,-2.1055,-2.1146,0,0,0,0,0,0,-2.0486,-2.0508,-2.0555,-2.0583,-2.0602,-2.0732,-2.0651,-2.065,-2.0682,-2.0674,-2.0705,-2.0706,-2.0696,-2.0792,-2.0808,-2.087,-2.0756,-2.1037,-2.1046,-2.1053,-2.1138,-2.1155,-2.1169,0,0,0,0,0,-2.0479,-2.0577,-2.0557,-2.0575,-2.0661,-2.0736,-2.0746,-2.0733,-2.0687,-2.0733,-2.074,-2.0705,-2.0854,-2.0802,-2.082,-2.0884,-2.1033,-2.1043,-2.1053,-2.113,-2.1151,-2.1169,0,0,0,0,0,0,-2.0556,-2.0581,-2.0559,-2.067,-2.0701,-2.0725,-2.0783,-2.0756,-2.0801,-2.0792,-2.0772,-2.078,-2.0876,-2.0889,-2.0831,-2.1001,-2.0936,-2.0949,-2.0989,-2.1009,-2.1025,-2.1019,-2.0762,0,0,0,0,0,-2.0586,-2.0646,-2.0664,-2.076,-2.0777,-2.0777,-2.0809,-2.0796,-2.0828,-2.0841,-2.0855,-2.0886,-2.0939,-2.0975,-2.1025,-2.1139,-2.1144,-2.1192,-2.1208,-2.1221,-2.1232,-2.1291,-2.1312,-2.1089,-2.1089,-2.1089,0,0,-2.0648,-2.0669,-2.0708,-2.0776,-2.0799,-2.086,-2.0789,-2.0857,-2.0902,-2.0851,-2.0938,-2.0949,-2.0982,-2.1085,-2.1131,-2.1099,-2.1295,-2.1233,-2.1243,-2.1248,-2.1303,-2.1324,-2.1343,-2.1096,-2.1095,-2.1094,0,0,-2.0793,-2.0816,-2.0897,-2.0921,-2.0957,-2.0956,-2.0976,-2.1003,-2.1009,-2.1096,-2.1058,-2.111,-2.1203,-2.1228,-2.1253,-2.1404,-2.1373,-2.1421,-2.1504,-2.1562,-2.1579,-2.1595,-2.1647,-2.1666,-2.1433,-2.1433,-2.1433,0,-2.0865,-2.0957,-2.0942,-2.1012,-2.1042,-2.0999,-2.108,-2.1104,-2.1154,-2.1175,-2.1139,-2.1253,-2.1272,-2.1379,-2.1416,-2.1438,-2.1458,-2.1417,-2.1578,-2.1594,-2.1608,-2.1657,-2.1677,-2.1439,-2.1438,-2.1438,-2.1437,0,-2.1044,-2.1108,-2.1169,-2.1219,-2.1255,-2.1331,-2.1325,-2.1364,-2.1348,-2.135,-2.1438,-2.146,-2.1512,-2.1537,-2.1522,-2.1641,-2.162,-2.1581,-2.1515,-2.1635,-2.1681,-2.17,-2.1447,-2.1445,-2.1443,-2.1442,0,0,-2.124,-2.1279,-2.1301,-2.1322,-2.1358,-2.1406,-2.1479,-2.153,-2.1563,-2.1599,-2.1657,-2.1736,-2.17,-2.1728,-2.1715,-2.1766,-2.1882,-2.1721,-2.1721,-2.1748,-2.2013,-2.204,-2.2063,-2.1862,-2.1865,-2.1868,-2.2009,0,-2.1384,-2.1511,-2.1499,-2.1619,-2.1676,-2.1636,-2.1698,-2.1726,-2.173,-2.1778,-2.1782,-2.1838,-2.1787,-2.1803,-2.1852,-2.1858,-2.1935,-2.1848,-2.1914,-2.1917,-2.1906,-2.2087,-2.2117,-2.2249,-2.2027,-2.2031,-2.2033,0,-2.157,-2.1612,-2.1738,-2.1763,-2.1786,-2.1843,-2.1888,-2.1936,-2.1965,-2.1964,-2.1995,-2.1973,-2.2043,-2.1977,-2.2073,-2.2014,-2.204,-2.2047,-2.2051,-2.2056,-2.1981,-2.2095,-2.2292,-2.2311,-2.2061,-2.2059,-2.2057,0,-2.1698,-2.1786,-2.1872,-2.1891,-2.1923,-2.1963,-2.1978,-2.2004,-2.2035,-2.2074,-2.2094,-2.2141,-2.2166,-2.2202,-2.2192,-2.2145,-2.229,-2.2223,-2.2289,-2.2289,-2.2321,-2.2319,-2.2522,-2.2341,-2.234,-2.234,-2.234,0,-2.186,-2.1938,-2.1929,-2.1983,-2.2068,-2.2052,-2.2137,-2.2146,-2.2169,-2.2222,-2.2189,-2.2239,-2.2223,-2.2272,-2.2264,-2.2343,-2.2356,-2.2355,-2.2352,-2.2358,-2.2357,-2.2374,-2.2363,-2.2345,-2.2344,-2.2343,-2.2342,0,-2.2017,-2.2015,-2.2105,-2.2127,-2.2135,-2.2197,-2.2214,-2.2263,-2.2264,-2.2331,-2.2346,-2.2347,-2.2402,-2.2396,-2.2458,-2.2452,-2.255,-2.2537,-2.2541,-2.2537,-2.2603,-2.2596,-2.2823,-2.2851,-2.2653,-2.2655,-2.2657,0,-2.212,-2.2179,-2.2207,-2.224,-2.2257,-2.2312,-2.2343,-2.2329,-2.2363,-2.24,-2.2444,-2.2496,-2.2537,-2.2627,-2.2632,-2.2679,-2.2665,-2.2741,-2.2671,-2.2674,-2.2663,-2.2659,-2.2664,-2.2754,-2.2757,-2.2759,-2.276,0,-2.2301,-2.2297,-2.2344,-2.2391,-2.2429,-2.2465,-2.2498,-2.2526,-2.2515,-2.2554,-2.2611,-2.2642,-2.2705,-2.2756,-2.28,-2.2813,-2.2784,-2.2782,-2.2799,-2.2805,-2.2803,-2.2802,-2.2576,-2.2777,-2.2775,-2.2774,-2.2773,-2.2772,-2.2433,-2.2483,-2.251,-2.2563,-2.2586,-2.2616,-2.2662,-2.2669,-2.2716,-2.2766,-2.2755,-2.2818,-2.2843,-2.2898,-2.2916,-2.2964,-2.2936,-2.2962,-2.2968,-2.2974,-2.298,-2.2797,-2.2972,-2.2971,-2.2971,-2.2971,-2.297,0,-2.2611,-2.2626,-2.2675,-2.2721,-2.2763,-2.2733,-2.2767,-2.2802,-2.2858,-2.2885,-2.2926,-2.2989,-2.3039,-2.3048,-2.3094,-2.313,-2.3118,-2.3143,-2.3139,-2.3142,-2.3004,-2.2984,-2.3152,-2.3152,-2.3152,-2.3152,-2.3152,-2.3152,-2.2709,-2.279,-2.2789,-2.2881,-2.2895,-2.2957,-2.2978,-2.3005,-2.3026,-2.3099,-2.314,-2.3146,-2.3165,-2.3212,-2.3255,-2.3256,-2.3274,-2.3303,-2.3299,-2.317,-2.3152,-2.3135,-2.3115,-2.3308,-2.3308,-2.3432,-2.3433,-2.3434]},{"header":{"parameterUnit":"m.s-1","parameterCategory":1,"la1":30.2991,"la2":30.254,"lo1":-89.0895,"lo2":-89.0444,"dy":0.0017,"dx":0.0017,"nx":28,"ny":28,"refTime":"2024-08-19T21:00:00:Z","depth":0,"parameterNumber":3,"parameterNumberName":"V-component_of_WINDS"},"data":[0,0,0,0,0,0,0,0,0,0,0,0,0,0,0,0,0,0,0,0,0,0,0,0,0,0,0,0,0,0,0,0,0,0,0,0,0,0,0,0,0,0,0,0,0,0,0,0,0,0,0,0,0,0,0,0,0,0,-2.9394,-2.9395,0,-2.9467,-2.9467,-2.9468,-2.946,-2.9459,-2.9458,-2.9457,-2.9526,-2.9529,-2.9532,0,0,0,0,0,0,0,0,0,0,0,0,0,-2.9243,-2.9245,-2.9394,-2.9395,-2.9396,-2.9467,-2.9467,-2.9468,-2.946,-2.9459,-2.9457,-2.9456,-2.9525,-2.9529,-2.9532,0,0,0,0,0,0,0,0,0,0,0,0,0,-2.9311,-2.9246,-2.9394,-2.94,-2.9402,-2.9466,-2.9468,-2.9469,-2.946,-2.9459,-2.9457,-2.9455,-2.9524,-2.9528,-2.9533,-2.9594,0,0,-2.9546,-2.9548,0,0,0,0,0,0,0,0,-2.9307,-2.9316,-2.9399,-2.94,-2.9402,-2.9453,-2.944,-2.9511,-2.9461,-2.9438,-2.9457,-2.9455,-2.9503,-2.9509,-2.9526,-2.9597,-2.96,-2.9546,-2.9549,-2.9551,-2.9552,0,0,0,0,0,0,0,-2.9302,-2.9313,-2.9423,-2.94,-2.9402,-2.9398,-2.9406,-2.9453,-2.9479,-2.944,-2.9439,-2.9448,-2.9503,-2.9522,-2.9528,-2.9601,-2.9546,-2.955,-2.9553,-2.9555,-2.9723,-2.9725,0,0,0,0,0,0,-2.9297,-2.9309,-2.942,-2.9425,-2.9349,-2.9402,-2.9411,-2.9438,-2.9478,-2.9483,-2.945,-2.9448,-2.9515,-2.9522,-2.953,-2.9603,-2.9551,-2.9555,-2.9558,-2.9722,-2.9724,-2.9726,0,0,0,0,0,0,-2.9294,-2.9307,-2.9417,-2.9367,-2.9381,-2.9406,-2.9437,-2.944,-2.9459,-2.9486,-2.949,-2.9464,-2.9514,-2.9524,-2.9578,-2.9605,-2.9557,-2.9561,-2.9719,-2.9722,-2.9725,-2.975,0,0,0,0,0,0,-2.9289,-2.9306,-2.9331,-2.9368,-2.9384,-2.9466,-2.9439,-2.9443,-2.9467,-2.9465,-2.9501,-2.9505,-2.9513,-2.9571,-2.9582,-2.961,-2.9564,-2.9717,-2.9721,-2.9724,-2.9747,-2.9753,-2.9759,0,0,0,0,0,-2.9284,-2.9335,-2.9332,-2.9346,-2.9416,-2.9468,-2.9477,-2.9487,-2.9469,-2.9494,-2.9511,-2.9504,-2.96,-2.9577,-2.9589,-2.9619,-2.9715,-2.972,-2.9724,-2.9744,-2.9752,-2.9758,0,0,0,0,0,0,-2.9299,-2.934,-2.9337,-2.9402,-2.9432,-2.9466,-2.9497,-2.9495,-2.9529,-2.9526,-2.9535,-2.9543,-2.9597,-2.9613,-2.9587,-2.9679,-2.9655,-2.9662,-2.9666,-2.9674,-2.968,-2.9674,-2.9568,0,0,0,0,0,-2.931,-2.9351,-2.9383,-2.9437,-2.9452,-2.9472,-2.9495,-2.95,-2.9531,-2.9543,-2.9564,-2.9592,-2.9628,-2.9652,-2.9688,-2.9749,-2.9755,-2.9775,-2.9781,-2.9786,-2.9791,-2.9822,-2.9831,-2.974,-2.974,-2.9739,0,0,-2.9333,-2.936,-2.9385,-2.944,-2.9464,-2.9503,-2.9483,-2.9526,-2.9554,-2.9549,-2.9601,-2.9617,-2.9649,-2.9707,-2.9733,-2.9722,-2.9818,-2.9791,-2.9795,-2.9798,-2.9827,-2.9836,-2.9844,-2.9742,-2.9742,-2.9741,0,0,-2.9395,-2.942,-2.9467,-2.9491,-2.9527,-2.954,-2.9551,-2.9586,-2.9597,-2.965,-2.9645,-2.9678,-2.9742,-2.9764,-2.9784,-2.9852,-2.9846,-2.9863,-2.9894,-2.9924,-2.9931,-2.9937,-2.9959,-2.9968,-2.9868,-2.9868,-2.9868,0,-2.9418,-2.948,-2.9491,-2.9534,-2.9557,-2.9555,-2.9601,-2.9623,-2.9668,-2.9683,-2.967,-2.9748,-2.977,-2.9831,-2.9848,-2.9864,-2.9875,-2.9858,-2.9929,-2.9936,-2.9942,-2.9963,-2.9972,-2.987,-2.987,-2.987,-2.9869,0,-2.9505,-2.9548,-2.958,-2.9625,-2.9652,-2.9696,-2.9712,-2.9738,-2.974,-2.9753,-2.9805,-2.9831,-2.987,-2.9885,-2.9888,-2.9947,-2.9938,-2.9927,-2.9904,-2.9952,-2.9972,-2.998,-2.9872,-2.9872,-2.9871,-2.9871,0,0,-2.9579,-2.9629,-2.964,-2.966,-2.9698,-2.973,-2.9773,-2.9813,-2.9833,-2.9864,-2.9899,-2.9951,-2.9941,-2.9963,-2.9968,-2.9995,-3.0044,-2.998,-2.9981,-2.9989,-3.0107,-3.0114,-3.0124,-3.0041,-3.0042,-3.0044,-3.0104,0,-2.9643,-2.9721,-2.9732,-2.98,-2.9837,-2.9834,-2.9871,-2.9898,-2.9911,-2.9943,-2.9957,-2.9993,-2.9978,-2.9991,-3.0017,-3.0033,-3.0067,-3.0028,-3.0071,-3.0072,-3.0062,-3.0135,-3.0143,-3.0198,-3.0112,-3.0113,-3.0114,0,-2.9729,-2.9763,-2.9835,-2.9866,-2.9883,-2.9916,-2.9952,-2.9983,-3.0012,-3.002,-3.0044,-3.0045,-3.0086,-3.0061,-3.0117,-3.0091,-3.0108,-3.0118,-3.012,-3.0124,-3.0095,-3.0138,-3.0217,-3.0224,-3.0127,-3.0126,-3.0125,0,-2.9773,-2.9837,-2.9887,-2.9904,-2.9943,-2.9966,-2.9983,-3.001,-3.0032,-3.0063,-3.0077,-3.0112,-3.0131,-3.0156,-3.0166,-3.0147,-3.022,-3.0197,-3.0226,-3.0225,-3.0241,-3.0239,-3.0321,-3.0254,-3.0254,-3.0254,-3.0254,0,-2.9843,-2.9887,-2.9907,-2.9939,-2.9986,-2.9997,-3.0043,-3.0059,-3.0083,-3.0115,-3.0114,-3.0144,-3.0155,-3.0186,-3.0193,-3.0237,-3.0246,-3.0251,-3.0252,-3.0251,-3.025,-3.0262,-3.0257,-3.0256,-3.0256,-3.0255,-3.0255,0,-2.99,-2.9917,-2.9971,-3.0003,-3.0012,-3.0046,-3.0072,-3.0101,-3.0113,-3.0154,-3.0164,-3.0183,-3.0219,-3.0231,-3.0274,-3.0279,-3.033,-3.0328,-3.032,-3.032,-3.0348,-3.0344,-3.0439,-3.0451,-3.0378,-3.0378,-3.0379,0,-2.9943,-2.9977,-3.0013,-3.0035,-3.0053,-3.0088,-3.0111,-3.0122,-3.0145,-3.0179,-3.0203,-3.024,-3.0269,-3.0326,-3.0343,-3.0375,-3.0373,-3.0404,-3.0378,-3.0375,-3.0372,-3.0369,-3.0371,-3.0409,-3.041,-3.041,-3.0411,0,-3.0017,-3.0023,-3.0057,-3.0093,-3.012,-3.0149,-3.0176,-3.0194,-3.0208,-3.0234,-3.0272,-3.0294,-3.0339,-3.0374,-3.0407,-3.0422,-3.0418,-3.0419,-3.0427,-3.0425,-3.0418,-3.042,-3.0332,-3.0417,-3.0416,-3.0416,-3.0415,-3.0415,-3.0067,-3.0096,-3.0125,-3.0162,-3.0184,-3.0209,-3.0237,-3.0253,-3.0285,-3.0323,-3.0327,-3.0366,-3.0392,-3.0436,-3.0453,-3.0482,-3.0473,-3.0485,-3.0488,-3.0491,-3.0492,-3.0415,-3.0488,-3.0488,-3.0488,-3.0488,-3.0488,0,-3.0139,-3.0158,-3.0192,-3.023,-3.0259,-3.0254,-3.0284,-3.0307,-3.0343,-3.0368,-3.0396,-3.0438,-3.0471,-3.049,-3.0523,-3.0543,-3.0542,-3.0551,-3.0549,-3.0552,-3.0499,-3.0488,-3.0551,-3.0551,-3.0551,-3.0551,-3.0551,-3.0551,-3.018,-3.0228,-3.0237,-3.0294,-3.0312,-3.0352,-3.0369,-3.0391,-3.0411,-3.0458,-3.0486,-3.0499,-3.052,-3.0554,-3.0584,-3.0588,-3.0599,-3.0609,-3.0612,-3.0562,-3.0556,-3.055,-3.0539,-3.0612,-3.0612,-3.0662,-3.0663,-3.0663]}]]